Time,TemperatureF,DewpointF,PressureIn,WindDirection,WindDirectionDegrees,WindSpeedMPH,WindSpeedGustMPH,Humidity,HourlyPrecipIn,Conditions,Clouds,dailyrainin,SolarRadiationWatts/m^2,SoftwareType,DateUTC
2013-01-19 00:00:00,32.5,16.8,30.25,South,181,4.0,10.0,52,0.00,,,0.01,0,HR-IXPWINDi_r2_v1.2.,2013-01-19 05:00:00,
2013-01-19 00:05:00,32.4,16.8,30.24,South,179,1.0,9.0,52,0.00,,,0.01,0,HR-IXPWINDi_r2_v1.2.,2013-01-19 05:05:00,
2013-01-19 00:11:00,32.4,16.8,30.24,South,183,2.0,9.0,52,0.00,,,0.00,0,HR-IXPWINDi_r2_v1.2.,2013-01-19 05:11:00,
2013-01-19 00:16:00,32.4,16.3,30.24,SSE,160,2.0,10.0,51,0.00,,,0.00,0,HR-IXPWINDi_r2_v1.2.,2013-01-19 05:16:00,
2013-01-19 00:21:00,32.4,16.8,30.23,South,178,4.0,10.0,52,0.00,,,0.00,0,HR-IXPWINDi_r2_v1.2.,2013-01-19 05:21:00,
2013-01-19 00:26:00,32.4,16.3,30.23,SSE,151,2.0,9.0,51,0.00,,,0.00,0,HR-IXPWINDi_r2_v1.2.,2013-01-19 05:26:00,
2013-01-19 00:31:00,32.4,16.3,30.23,South,186,2.0,7.0,51,0.00,,,0.00,0,HR-IXPWINDi_r2_v1.2.,2013-01-19 05:31:00,
2013-01-19 00:36:00,32.5,15.9,30.23,SSW,201,4.0,9.0,50,0.00,,,0.00,0,HR-IXPWINDi_r2_v1.2.,2013-01-19 05:36:00,
2013-01-19 00:41:00,32.7,15.7,30.23,SSW,202,10.0,11.0,49,0.00,,,0.00,0,HR-IXPWINDi_r2_v1.2.,2013-01-19 05:41:00,
2013-01-19 00:46:00,32.8,15.8,30.23,SSW,201,4.0,12.0,49,0.00,,,0.00,0,HR-IXPWINDi_r2_v1.2.,2013-01-19 05:46:00,
2013-01-19 00:52:00,32.9,15.4,30.23,SSW,212,6.0,12.0,48,0.00,,,0.00,0,HR-IXPWINDi_r2_v1.2.,2013-01-19 05:52:00,
2013-01-19 00:57:00,33.1,15.6,30.23,SSW,192,5.0,12.0,48,0.00,,,0.00,0,HR-IXPWINDi_r2_v1.2.,2013-01-19 05:57:00,
2013-01-19 01:02:00,33.1,15.1,30.23,SSW,196,2.0,10.0,47,0.00,,,0.00,0,HR-IXPWINDi_r2_v1.2.,2013-01-19 06:02:00,
2013-01-19 01:08:00,33.1,15.1,30.22,SSW,208,14.0,14.0,47,0.00,,,0.00,0,HR-IXPWINDi_r2_v1.2.,2013-01-19 06:08:00,
2013-01-19 01:13:00,33.2,14.7,30.22,SE,146,5.0,15.0,46,0.00,,,0.00,0,HR-IXPWINDi_r2_v1.2.,2013-01-19 06:13:00,
2013-01-19 01:18:00,33.4,14.9,30.22,SW,215,6.0,15.0,46,0.00,,,0.00,0,HR-IXPWINDi_r2_v1.2.,2013-01-19 06:18:00,
2013-01-19 01:23:00,33.5,14.5,30.22,SSW,198,5.0,12.0,45,0.00,,,0.00,0,HR-IXPWINDi_r2_v1.2.,2013-01-19 06:23:00,
2013-01-19 01:28:00,33.5,14.5,30.22,South,178,7.0,10.0,45,0.00,,,0.00,0,HR-IXPWINDi_r2_v1.2.,2013-01-19 06:28:00,
2013-01-19 01:34:00,33.7,14.6,30.22,SSE,160,6.0,10.0,45,0.00,,,0.00,0,HR-IXPWINDi_r2_v1.2.,2013-01-19 06:34:00,
2013-01-19 01:39:00,33.8,14.2,30.21,South,179,5.0,10.0,44,0.00,,,0.00,0,HR-IXPWINDi_r2_v1.2.,2013-01-19 06:39:00,
2013-01-19 01:44:00,34.0,14.4,30.21,South,186,6.0,17.0,44,0.00,,,0.00,0,HR-IXPWINDi_r2_v1.2.,2013-01-19 06:44:00,
2013-01-19 01:50:00,34.1,14.0,30.21,South,191,4.0,17.0,43,0.00,,,0.00,0,HR-IXPWINDi_r2_v1.2.,2013-01-19 06:50:00,
2013-01-19 01:55:00,34.1,14.0,30.21,South,189,1.0,11.0,43,0.00,,,0.00,0,HR-IXPWINDi_r2_v1.2.,2013-01-19 06:55:00,
2013-01-19 02:00:00,34.3,14.1,30.21,South,178,6.0,11.0,43,0.00,,,0.00,0,HR-IXPWINDi_r2_v1.2.,2013-01-19 07:00:00,
2013-01-19 02:05:00,34.3,14.1,30.21,SSE,161,1.0,11.0,43,0.00,,,0.00,0,HR-IXPWINDi_r2_v1.2.,2013-01-19 07:05:00,
2013-01-19 02:10:00,34.4,13.7,30.21,SSW,205,7.0,11.0,42,0.00,,,0.00,0,HR-IXPWINDi_r2_v1.2.,2013-01-19 07:10:00,
2013-01-19 02:15:00,34.6,13.3,30.21,SSW,204,5.0,13.0,41,0.00,,,0.00,0,HR-IXPWINDi_r2_v1.2.,2013-01-19 07:15:00,
2013-01-19 02:21:00,34.7,13.4,30.21,SSW,192,13.0,13.0,41,0.00,,,0.00,0,HR-IXPWINDi_r2_v1.2.,2013-01-19 07:21:00,
2013-01-19 02:26:00,34.9,13.1,30.21,SSW,205,5.0,14.0,40,0.00,,,0.00,0,HR-IXPWINDi_r2_v1.2.,2013-01-19 07:26:00,
2013-01-19 02:31:00,35.0,13.1,30.21,SSW,199,6.0,14.0,40,0.00,,,0.00,0,HR-IXPWINDi_r2_v1.2.,2013-01-19 07:31:00,
2013-01-19 02:36:00,35.2,12.7,30.21,South,182,5.0,12.0,39,0.00,,,0.00,0,HR-IXPWINDi_r2_v1.2.,2013-01-19 07:36:00,
2013-01-19 02:41:00,35.3,12.8,30.21,South,189,10.0,11.0,39,0.00,,,0.00,0,HR-IXPWINDi_r2_v1.2.,2013-01-19 07:41:00,
2013-01-19 02:46:00,35.5,12.4,30.21,SSW,196,3.0,11.0,38,0.00,,,0.00,0,HR-IXPWINDi_r2_v1.2.,2013-01-19 07:46:00,
2013-01-19 02:52:00,35.6,12.5,30.20,South,178,6.0,11.0,38,0.00,,,0.00,0,HR-IXPWINDi_r2_v1.2.,2013-01-19 07:52:00,
2013-01-19 02:57:00,35.6,12.5,30.20,SSW,198,7.0,10.0,38,0.00,,,0.00,0,HR-IXPWINDi_r2_v1.2.,2013-01-19 07:57:00,
2013-01-19 03:02:00,35.6,12.5,30.20,South,191,6.0,11.0,38,0.00,,,0.00,0,HR-IXPWINDi_r2_v1.2.,2013-01-19 08:02:00,
2013-01-19 03:07:00,35.6,11.9,30.20,South,182,9.0,14.0,37,0.00,,,0.00,0,HR-IXPWINDi_r2_v1.2.,2013-01-19 08:07:00,
2013-01-19 03:12:00,35.8,12.1,30.20,South,178,9.0,14.0,37,0.00,,,0.00,0,HR-IXPWINDi_r2_v1.2.,2013-01-19 08:12:00,
2013-01-19 03:18:00,35.8,12.1,30.20,SSW,205,6.0,11.0,37,0.00,,,0.00,0,HR-IXPWINDi_r2_v1.2.,2013-01-19 08:18:00,
2013-01-19 03:23:00,35.8,12.7,30.20,South,185,6.0,11.0,38,0.00,,,0.00,0,HR-IXPWINDi_r2_v1.2.,2013-01-19 08:23:00,
2013-01-19 03:28:00,35.8,12.7,30.20,South,191,8.0,10.0,38,0.00,,,0.00,0,HR-IXPWINDi_r2_v1.2.,2013-01-19 08:28:00,
2013-01-19 03:33:00,35.8,12.7,30.20,South,169,9.0,13.0,38,0.00,,,0.00,0,HR-IXPWINDi_r2_v1.2.,2013-01-19 08:33:00,
2013-01-19 03:38:00,35.8,12.7,30.19,SSW,203,2.0,13.0,38,0.00,,,0.00,0,HR-IXPWINDi_r2_v1.2.,2013-01-19 08:38:00,
2013-01-19 03:43:00,35.8,12.7,30.19,SW,227,7.0,12.0,38,0.00,,,0.00,0,HR-IXPWINDi_r2_v1.2.,2013-01-19 08:43:00,
2013-01-19 03:48:00,35.9,12.8,30.19,South,186,6.0,12.0,38,0.00,,,0.00,0,HR-IXPWINDi_r2_v1.2.,2013-01-19 08:48:00,
2013-01-19 03:53:00,35.9,12.8,30.19,SSW,196,8.0,15.0,38,0.00,,,0.00,0,HR-IXPWINDi_r2_v1.2.,2013-01-19 08:53:00,
2013-01-19 03:59:00,36.0,12.9,30.19,South,178,4.0,15.0,38,0.00,,,0.00,0,HR-IXPWINDi_r2_v1.2.,2013-01-19 08:59:00,
2013-01-19 04:04:00,36.0,13.5,30.19,South,183,8.0,14.0,39,0.00,,,0.00,0,HR-IXPWINDi_r2_v1.2.,2013-01-19 09:04:00,
2013-01-19 04:09:00,36.0,13.5,30.18,SSW,198,7.0,13.0,39,0.00,,,0.00,0,HR-IXPWINDi_r2_v1.2.,2013-01-19 09:09:00,
2013-01-19 04:14:00,36.0,14.0,30.18,South,191,7.0,13.0,40,0.00,,,0.00,0,HR-IXPWINDi_r2_v1.2.,2013-01-19 09:14:00,
2013-01-19 04:19:00,36.0,14.0,30.18,SSW,201,6.0,13.0,40,0.00,,,0.00,0,HR-IXPWINDi_r2_v1.2.,2013-01-19 09:19:00,
2013-01-19 04:25:00,36.0,14.0,30.18,South,183,4.0,13.0,40,0.00,,,0.00,0,HR-IXPWINDi_r2_v1.2.,2013-01-19 09:25:00,
2013-01-19 04:30:00,36.2,14.2,30.18,SSW,193,14.0,14.0,40,0.00,,,0.00,0,HR-IXPWINDi_r2_v1.2.,2013-01-19 09:30:00,
2013-01-19 04:35:00,36.2,14.8,30.18,South,179,6.0,14.0,41,0.00,,,0.00,0,HR-IXPWINDi_r2_v1.2.,2013-01-19 09:35:00,
2013-01-19 04:40:00,36.2,14.8,30.18,SSW,196,6.0,14.0,41,0.00,,,0.00,0,HR-IXPWINDi_r2_v1.2.,2013-01-19 09:40:00,
2013-01-19 04:45:00,36.3,14.9,30.18,South,180,6.0,12.0,41,0.00,,,0.00,0,HR-IXPWINDi_r2_v1.2.,2013-01-19 09:45:00,
2013-01-19 04:50:00,36.3,15.4,30.18,SSW,203,5.0,12.0,42,0.00,,,0.00,0,HR-IXPWINDi_r2_v1.2.,2013-01-19 09:50:00,
2013-01-19 04:55:00,36.3,15.4,30.18,South,191,6.0,12.0,42,0.00,,,0.00,0,HR-IXPWINDi_r2_v1.2.,2013-01-19 09:55:00,
2013-01-19 05:00:00,36.3,16.0,30.18,South,191,5.0,10.0,43,0.00,,,0.00,0,HR-IXPWINDi_r2_v1.2.,2013-01-19 10:00:00,
2013-01-19 05:06:00,36.3,16.0,30.17,SSW,208,2.0,10.0,43,0.00,,,0.00,0,HR-IXPWINDi_r2_v1.2.,2013-01-19 10:06:00,
2013-01-19 05:11:00,36.2,15.9,30.17,SSW,196,4.0,12.0,43,0.00,,,0.00,0,HR-IXPWINDi_r2_v1.2.,2013-01-19 10:11:00,
2013-01-19 05:16:00,36.3,16.0,30.17,SSW,198,5.0,12.0,43,0.00,,,0.00,0,HR-IXPWINDi_r2_v1.2.,2013-01-19 10:16:00,
2013-01-19 05:21:00,36.3,16.0,30.18,SSE,166,5.0,17.0,43,0.00,,,0.00,0,HR-IXPWINDi_r2_v1.2.,2013-01-19 10:21:00,
2013-01-19 05:27:00,36.5,16.1,30.18,South,182,8.0,17.0,43,0.00,,,0.00,0,HR-IXPWINDi_r2_v1.2.,2013-01-19 10:27:00,
2013-01-19 05:32:00,36.5,16.1,30.18,South,178,5.0,12.0,43,0.00,,,0.00,0,HR-IXPWINDi_r2_v1.2.,2013-01-19 10:32:00,
2013-01-19 05:37:00,36.5,16.1,30.16,SSW,193,7.0,14.0,43,0.00,,,0.00,0,HR-IXPWINDi_r2_v1.2.,2013-01-19 10:37:00,
2013-01-19 05:42:00,36.6,16.2,30.16,SSW,193,7.0,14.0,43,0.00,,,0.00,0,HR-IXPWINDi_r2_v1.2.,2013-01-19 10:42:00,
2013-01-19 05:47:00,36.6,16.2,30.16,South,178,9.0,14.0,43,0.00,,,0.00,0,HR-IXPWINDi_r2_v1.2.,2013-01-19 10:47:00,
2013-01-19 05:53:00,36.8,16.4,30.17,South,189,5.0,13.0,43,0.00,,,0.00,0,HR-IXPWINDi_r2_v1.2.,2013-01-19 10:53:00,
2013-01-19 05:58:00,36.9,16.5,30.17,SSW,195,11.0,13.0,43,0.00,,,0.00,0,HR-IXPWINDi_r2_v1.2.,2013-01-19 10:58:00,
2013-01-19 06:03:00,37.0,17.1,30.17,SSW,196,14.0,14.0,44,0.00,,,0.00,0,HR-IXPWINDi_r2_v1.2.,2013-01-19 11:03:00,
2013-01-19 06:09:00,37.2,16.8,30.17,South,190,9.0,14.0,43,0.00,,,0.00,0,HR-IXPWINDi_r2_v1.2.,2013-01-19 11:09:00,
2013-01-19 06:14:00,37.3,16.9,30.17,South,185,10.0,14.0,43,0.00,,,0.00,0,HR-IXPWINDi_r2_v1.2.,2013-01-19 11:14:00,
2013-01-19 07:47:00,38.5,18.0,30.16,SSW,208,15.0,16.0,43,0.00,,,0.00,7,HR-IXPWINDi_r2_v1.2.,2013-01-19 12:47:00,
2013-01-19 07:48:00,38.5,17.4,30.16,South,176,12.0,19.0,42,0.00,,,0.00,7,HR-IXPWINDi_r2_v1.2.,2013-01-19 12:48:00,
2013-01-19 07:53:00,38.6,17.5,30.16,South,184,10.0,19.0,42,0.00,,,0.00,11,HR-IXPWINDi_r2_v1.2.,2013-01-19 12:53:00,
2013-01-19 07:58:00,38.6,17.5,30.16,SSW,202,10.0,18.0,42,0.00,,,0.00,12,HR-IXPWINDi_r2_v1.2.,2013-01-19 12:58:00,
2013-01-19 08:03:00,38.6,17.5,30.16,SSW,200,6.0,18.0,42,0.00,,,0.00,21,HR-IXPWINDi_r2_v1.2.,2013-01-19 13:03:00,
2013-01-19 08:08:00,38.6,18.0,30.16,South,182,6.0,16.0,43,0.00,,,0.00,42,HR-IXPWINDi_r2_v1.2.,2013-01-19 13:08:00,
2013-01-19 08:14:00,38.8,18.2,30.16,SW,218,15.0,16.0,43,0.00,,,0.00,56,HR-IXPWINDi_r2_v1.2.,2013-01-19 13:14:00,
2013-01-19 08:19:00,38.8,18.2,30.16,WSW,252,7.0,16.0,43,0.00,,,0.00,72,HR-IXPWINDi_r2_v1.2.,2013-01-19 13:19:00,
2013-01-19 08:24:00,38.9,18.3,30.16,SSW,205,15.0,19.0,43,0.00,,,0.00,86,HR-IXPWINDi_r2_v1.2.,2013-01-19 13:24:00,
2013-01-19 08:29:00,39.1,18.0,30.16,SW,216,11.0,19.0,42,0.00,,,0.00,100,HR-IXPWINDi_r2_v1.2.,2013-01-19 13:29:00,
2013-01-19 08:35:00,39.3,18.1,30.16,SSW,213,11.0,18.0,42,0.00,,,0.00,114,HR-IXPWINDi_r2_v1.2.,2013-01-19 13:35:00,
2013-01-19 08:40:00,39.5,18.9,30.16,SSW,211,5.0,15.0,43,0.00,,,0.00,130,HR-IXPWINDi_r2_v1.2.,2013-01-19 13:40:00,
2013-01-19 08:45:00,39.6,18.9,30.16,South,189,12.0,15.0,43,0.00,,,0.00,142,HR-IXPWINDi_r2_v1.2.,2013-01-19 13:45:00,
2013-01-19 08:50:00,39.8,18.6,30.16,SSW,199,2.0,14.0,42,0.00,,,0.00,156,HR-IXPWINDi_r2_v1.2.,2013-01-19 13:50:00,
2013-01-19 08:55:00,40.1,18.9,30.16,SSW,205,10.0,19.0,42,0.00,,,0.00,172,HR-IXPWINDi_r2_v1.2.,2013-01-19 13:55:00,
2013-01-19 09:00:00,40.2,18.9,30.16,SSW,198,9.0,19.0,42,0.00,,,0.00,190,HR-IXPWINDi_r2_v1.2.,2013-01-19 14:00:00,
2013-01-19 09:05:00,40.5,19.8,30.16,South,182,18.0,18.0,43,0.00,,,0.00,200,HR-IXPWINDi_r2_v1.2.,2013-01-19 14:05:00,
2013-01-19 09:10:00,40.9,19.0,30.16,SSW,197,7.0,18.0,41,0.00,,,0.00,211,HR-IXPWINDi_r2_v1.2.,2013-01-19 14:10:00,
2013-01-19 09:16:00,41.2,18.7,30.16,SSW,205,9.0,26.0,40,0.00,,,0.00,220,HR-IXPWINDi_r2_v1.2.,2013-01-19 14:16:00,
2013-01-19 09:21:00,41.5,19.6,30.16,SW,229,6.0,26.0,41,0.00,,,0.00,234,HR-IXPWINDi_r2_v1.2.,2013-01-19 14:21:00,
2013-01-19 09:27:00,41.6,18.5,30.16,West,264,10.0,21.0,39,0.00,,,0.00,246,HR-IXPWINDi_r2_v1.2.,2013-01-19 14:27:00,
2013-01-19 09:32:00,41.9,18.8,30.16,South,189,10.0,21.0,39,0.00,,,0.00,257,HR-IXPWINDi_r2_v1.2.,2013-01-19 14:32:00,
2013-01-19 09:37:00,42.2,19.0,30.16,SW,231,12.0,20.0,39,0.00,,,0.00,269,HR-IXPWINDi_r2_v1.2.,2013-01-19 14:37:00,
2013-01-19 09:42:00,42.3,19.1,30.16,SSW,212,9.0,20.0,39,0.00,,,0.00,281,HR-IXPWINDi_r2_v1.2.,2013-01-19 14:42:00,
2013-01-19 09:47:00,42.6,19.4,30.16,WSW,256,13.0,26.0,39,0.00,,,0.00,294,HR-IXPWINDi_r2_v1.2.,2013-01-19 14:47:00,
2013-01-19 09:52:00,42.8,20.1,30.16,SSW,209,11.0,26.0,40,0.00,,,0.00,306,HR-IXPWINDi_r2_v1.2.,2013-01-19 14:52:00,
2013-01-19 09:58:00,42.9,19.6,30.16,South,179,12.0,18.0,39,0.00,,,0.00,318,HR-IXPWINDi_r2_v1.2.,2013-01-19 14:58:00,
2013-01-19 10:03:00,43.2,20.5,30.16,SW,214,11.0,20.0,40,0.00,,,0.00,329,HR-IXPWINDi_r2_v1.2.,2013-01-19 15:03:00,
2013-01-19 10:08:00,43.3,20.0,30.15,South,190,16.0,25.0,39,0.00,,,0.00,339,HR-IXPWINDi_r2_v1.2.,2013-01-19 15:08:00,
2013-01-19 10:13:00,43.5,19.6,30.15,South,186,21.0,26.0,38,0.00,,,0.00,350,HR-IXPWINDi_r2_v1.2.,2013-01-19 15:13:00,
2013-01-19 10:18:00,43.8,20.5,30.15,SW,215,17.0,26.0,39,0.00,,,0.01,360,HR-IXPWINDi_r2_v1.2.,2013-01-19 15:18:00,
2013-01-19 10:24:00,43.9,20.5,30.15,SW,215,10.0,21.0,39,0.00,,,0.01,371,HR-IXPWINDi_r2_v1.2.,2013-01-19 15:24:00,
2013-01-19 10:29:00,44.1,20.7,30.15,SSW,212,12.0,26.0,39,0.00,,,0.01,380,HR-IXPWINDi_r2_v1.2.,2013-01-19 15:29:00,
2013-01-19 10:34:00,44.5,21.7,30.15,South,184,11.0,26.0,40,0.00,,,0.01,388,HR-IXPWINDi_r2_v1.2.,2013-01-19 15:34:00,
2013-01-19 10:39:00,44.9,20.2,30.15,SSW,212,14.0,21.0,37,0.00,,,0.01,399,HR-IXPWINDi_r2_v1.2.,2013-01-19 15:39:00,
2013-01-19 10:44:00,45.1,21.0,30.15,SW,222,17.0,27.0,38,0.00,,,0.02,406,HR-IXPWINDi_r2_v1.2.,2013-01-19 15:44:00,
2013-01-19 10:49:00,45.2,21.1,30.15,SSW,207,11.0,27.0,38,0.00,,,0.02,413,HR-IXPWINDi_r2_v1.2.,2013-01-19 15:49:00,
2013-01-19 10:55:00,45.4,21.3,30.13,SW,218,11.0,24.0,38,0.00,,,0.02,422,HR-IXPWINDi_r2_v1.2.,2013-01-19 15:55:00,
2013-01-19 11:00:00,45.8,21.6,30.13,SSW,204,12.0,23.0,38,0.00,,,0.02,429,HR-IXPWINDi_r2_v1.2.,2013-01-19 16:00:00,
2013-01-19 11:05:00,46.2,20.7,30.13,SSW,203,16.0,24.0,36,0.00,,,0.02,436,HR-IXPWINDi_r2_v1.2.,2013-01-19 16:05:00,
2013-01-19 11:10:00,46.5,21.6,30.13,SSW,201,14.0,24.0,37,0.00,,,0.03,443,HR-IXPWINDi_r2_v1.2.,2013-01-19 16:10:00,
2013-01-19 11:15:00,46.7,20.5,30.13,SSW,204,13.0,20.0,35,0.00,,,0.03,450,HR-IXPWINDi_r2_v1.2.,2013-01-19 16:15:00,
2013-01-19 11:21:00,47.0,20.1,30.12,South,178,15.0,19.0,34,0.00,,,0.03,455,HR-IXPWINDi_r2_v1.2.,2013-01-19 16:21:00,
2013-01-19 11:26:00,47.4,21.8,30.12,SW,216,18.0,19.0,36,0.00,,,0.04,461,HR-IXPWINDi_r2_v1.2.,2013-01-19 16:26:00,
2013-01-19 11:31:00,47.6,20.6,30.12,SSW,208,17.0,25.0,34,0.00,,,0.04,468,HR-IXPWINDi_r2_v1.2.,2013-01-19 16:31:00,
2013-01-19 11:36:00,47.7,20.7,30.10,South,189,18.0,25.0,34,0.00,,,0.04,471,HR-IXPWINDi_r2_v1.2.,2013-01-19 16:36:00,
2013-01-19 11:42:00,48.2,21.1,30.10,SW,224,16.0,22.0,34,0.00,,,0.04,475,HR-IXPWINDi_r2_v1.2.,2013-01-19 16:42:00,
2013-01-19 11:47:00,48.2,20.4,30.10,South,184,10.0,23.0,33,0.00,,,0.05,480,HR-IXPWINDi_r2_v1.2.,2013-01-19 16:47:00,
2013-01-19 11:52:00,48.6,20.8,30.09,SSW,210,11.0,23.0,33,0.00,,,0.05,482,HR-IXPWINDi_r2_v1.2.,2013-01-19 16:52:00,
2013-01-19 11:57:00,48.8,20.2,30.09,SSW,198,11.0,22.0,32,0.00,,,0.05,485,HR-IXPWINDi_r2_v1.2.,2013-01-19 16:57:00,
2013-01-19 12:03:00,49.1,19.8,30.09,SW,227,10.0,23.0,31,0.00,,,0.05,487,HR-IXPWINDi_r2_v1.2.,2013-01-19 17:03:00,
2013-01-19 12:08:00,49.1,20.5,30.08,SSW,201,17.0,24.0,32,0.00,,,0.06,490,HR-IXPWINDi_r2_v1.2.,2013-01-19 17:08:00,
2013-01-19 12:13:00,49.1,19.8,30.08,SSW,195,14.0,25.0,31,0.00,,,0.06,490,HR-IXPWINDi_r2_v1.2.,2013-01-19 17:13:00,
2013-01-19 12:18:00,49.2,20.6,30.08,SSW,198,13.0,25.0,32,0.00,,,0.06,494,HR-IXPWINDi_r2_v1.2.,2013-01-19 17:18:00,
2013-01-19 12:23:00,49.5,20.1,30.06,South,186,10.0,21.0,31,0.00,,,0.06,496,HR-IXPWINDi_r2_v1.2.,2013-01-19 17:23:00,
2013-01-19 12:29:00,49.8,18.8,30.06,SW,216,19.0,24.0,29,0.00,,,0.06,496,HR-IXPWINDi_r2_v1.2.,2013-01-19 17:29:00,
2013-01-19 12:34:00,49.9,17.3,30.06,SSW,192,5.0,25.0,27,0.00,,,0.07,494,HR-IXPWINDi_r2_v1.2.,2013-01-19 17:34:00,
2013-01-19 12:39:00,50.4,17.7,30.05,SSW,213,9.0,25.0,27,0.00,,,0.07,496,HR-IXPWINDi_r2_v1.2.,2013-01-19 17:39:00,
2013-01-19 12:44:00,50.5,17.8,30.05,SW,230,15.0,25.0,27,0.00,,,0.07,494,HR-IXPWINDi_r2_v1.2.,2013-01-19 17:44:00,
2013-01-19 12:50:00,50.5,18.6,30.05,North,0,6.0,25.0,28,0.00,,,0.07,494,HR-IXPWINDi_r2_v1.2.,2013-01-19 17:50:00,
2013-01-19 12:55:00,50.8,18.0,30.04,South,184,12.0,25.0,27,0.00,,,0.07,492,HR-IXPWINDi_r2_v1.2.,2013-01-19 17:55:00,
2013-01-19 13:00:00,51.1,19.1,30.04,SSW,202,13.0,22.0,28,0.00,,,0.07,489,HR-IXPWINDi_r2_v1.2.,2013-01-19 18:00:00,
2013-01-19 13:05:00,51.3,19.3,30.03,SSW,192,11.0,22.0,28,0.00,,,0.08,487,HR-IXPWINDi_r2_v1.2.,2013-01-19 18:05:00,
2013-01-19 13:10:00,51.4,18.5,30.03,SSW,200,11.0,22.0,27,0.00,,,0.08,485,HR-IXPWINDi_r2_v1.2.,2013-01-19 18:10:00,
2013-01-19 13:15:00,51.7,17.9,30.03,SW,220,22.0,22.0,26,0.00,,,0.08,483,HR-IXPWINDi_r2_v1.2.,2013-01-19 18:15:00,
2013-01-19 13:20:00,51.9,17.2,30.02,SSW,210,15.0,22.0,25,0.00,,,0.08,480,HR-IXPWINDi_r2_v1.2.,2013-01-19 18:20:00,
2013-01-19 13:25:00,52.2,18.4,30.02,SSW,211,14.0,20.0,26,0.00,,,0.08,476,HR-IXPWINDi_r2_v1.2.,2013-01-19 18:25:00,
2013-01-19 13:30:00,52.2,17.4,30.02,SE,127,7.0,23.0,25,0.00,,,0.08,473,HR-IXPWINDi_r2_v1.2.,2013-01-19 18:30:00,
2013-01-19 13:35:00,52.2,17.4,30.01,South,178,22.0,24.0,25,0.00,,,0.08,468,HR-IXPWINDi_r2_v1.2.,2013-01-19 18:35:00,
2013-01-19 13:40:00,52.3,16.6,30.01,WSW,242,14.0,24.0,24,0.00,,,0.08,464,HR-IXPWINDi_r2_v1.2.,2013-01-19 18:40:00,
2013-01-19 13:46:00,52.3,18.4,30.01,SW,231,11.0,24.0,26,0.00,,,0.08,457,HR-IXPWINDi_r2_v1.2.,2013-01-19 18:46:00,
2013-01-19 13:51:00,52.3,18.4,30.00,South,185,6.0,21.0,26,0.00,,,0.08,448,HR-IXPWINDi_r2_v1.2.,2013-01-19 18:51:00,
2013-01-19 13:57:00,52.6,16.8,30.00,SW,229,20.0,25.0,24,0.00,,,0.08,445,HR-IXPWINDi_r2_v1.2.,2013-01-19 18:57:00,
2013-01-19 14:02:00,52.8,18.9,30.00,SSW,209,12.0,25.0,26,0.00,,,0.08,439,HR-IXPWINDi_r2_v1.2.,2013-01-19 19:02:00,
2013-01-19 14:07:00,53.2,17.4,29.99,SSW,205,13.0,25.0,24,0.00,,,0.09,431,HR-IXPWINDi_r2_v1.2.,2013-01-19 19:07:00,
2013-01-19 14:13:00,53.3,17.4,29.99,SSW,201,16.0,23.0,24,0.00,,,0.09,420,HR-IXPWINDi_r2_v1.2.,2013-01-19 19:13:00,
2013-01-19 14:18:00,53.1,17.3,29.99,South,184,12.0,29.0,24,0.00,,,0.09,413,HR-IXPWINDi_r2_v1.2.,2013-01-19 19:18:00,
2013-01-19 14:23:00,53.1,18.2,29.98,SSW,207,25.0,29.0,25,0.00,,,0.09,406,HR-IXPWINDi_r2_v1.2.,2013-01-19 19:23:00,
2013-01-19 14:28:00,52.9,17.1,29.98,SSW,198,24.0,31.0,24,0.00,,,0.09,397,HR-IXPWINDi_r2_v1.2.,2013-01-19 19:28:00,
2013-01-19 14:33:00,52.8,18.0,29.98,SSW,212,19.0,31.0,25,0.00,,,0.09,388,HR-IXPWINDi_r2_v1.2.,2013-01-19 19:33:00,
2013-01-19 14:38:00,52.9,18.9,29.97,SSW,208,13.0,24.0,26,0.00,,,0.09,378,HR-IXPWINDi_r2_v1.2.,2013-01-19 19:38:00,
2013-01-19 14:43:00,53.2,19.2,29.97,South,189,9.0,24.0,26,0.00,,,0.09,369,HR-IXPWINDi_r2_v1.2.,2013-01-19 19:43:00,
2013-01-19 14:48:00,53.2,20.1,29.97,SW,217,8.0,22.0,27,0.00,,,0.09,357,HR-IXPWINDi_r2_v1.2.,2013-01-19 19:48:00,
2013-01-19 14:54:00,53.3,18.4,29.96,SSW,203,15.0,23.0,25,0.00,,,0.09,346,HR-IXPWINDi_r2_v1.2.,2013-01-19 19:54:00,
2013-01-19 14:59:00,53.3,18.4,29.96,South,178,15.0,23.0,25,0.00,,,0.09,338,HR-IXPWINDi_r2_v1.2.,2013-01-19 19:59:00,
2013-01-19 15:04:00,53.3,18.4,29.96,SSW,192,11.0,22.0,25,0.00,,,0.09,327,HR-IXPWINDi_r2_v1.2.,2013-01-19 20:04:00,
2013-01-19 15:09:00,53.5,19.5,29.96,South,187,4.0,21.0,26,0.00,,,0.09,313,HR-IXPWINDi_r2_v1.2.,2013-01-19 20:09:00,
2013-01-19 15:14:00,53.6,18.6,29.96,South,191,14.0,23.0,25,0.00,,,0.09,301,HR-IXPWINDi_r2_v1.2.,2013-01-19 20:14:00,
2013-01-19 15:20:00,53.5,19.5,29.96,SSW,212,18.0,26.0,26,0.00,,,0.09,288,HR-IXPWINDi_r2_v1.2.,2013-01-19 20:20:00,
2013-01-19 15:25:00,53.3,18.4,29.95,South,179,16.0,26.0,25,0.00,,,0.09,276,HR-IXPWINDi_r2_v1.2.,2013-01-19 20:25:00,
2013-01-19 15:30:00,53.3,20.2,29.95,South,178,11.0,22.0,27,0.00,,,0.09,264,HR-IXPWINDi_r2_v1.2.,2013-01-19 20:30:00,
2013-01-19 15:35:00,53.2,20.1,29.94,WSW,244,6.0,22.0,27,0.00,,,0.09,251,HR-IXPWINDi_r2_v1.2.,2013-01-19 20:35:00,
2013-01-19 15:40:00,53.2,18.3,29.94,SSE,151,13.0,24.0,25,0.00,,,0.09,239,HR-IXPWINDi_r2_v1.2.,2013-01-19 20:40:00,
2013-01-19 15:45:00,53.2,19.2,29.94,South,189,24.0,29.0,26,0.00,,,0.09,227,HR-IXPWINDi_r2_v1.2.,2013-01-19 20:45:00,
2013-01-19 15:50:00,53.2,19.2,29.94,SSW,202,15.0,29.0,26,0.00,,,0.09,214,HR-IXPWINDi_r2_v1.2.,2013-01-19 20:50:00,
2013-01-19 15:56:00,53.2,19.2,29.94,SSW,209,12.0,25.0,26,0.00,,,0.09,200,HR-IXPWINDi_r2_v1.2.,2013-01-19 20:56:00,
2013-01-19 16:01:00,53.2,19.2,29.94,SSW,209,7.0,19.0,26,0.00,,,0.09,188,HR-IXPWINDi_r2_v1.2.,2013-01-19 21:01:00,
2013-01-19 16:06:00,53.2,19.2,29.93,SW,222,9.0,19.0,26,0.00,,,0.09,176,HR-IXPWINDi_r2_v1.2.,2013-01-19 21:06:00,
2013-01-19 16:11:00,53.2,20.1,29.93,SSW,203,11.0,15.0,27,0.00,,,0.09,162,HR-IXPWINDi_r2_v1.2.,2013-01-19 21:11:00,
2013-01-19 16:16:00,53.2,20.1,29.93,South,185,17.0,21.0,27,0.00,,,0.09,148,HR-IXPWINDi_r2_v1.2.,2013-01-19 21:16:00,
2013-01-19 16:22:00,53.1,19.1,29.93,South,178,11.0,26.0,26,0.00,,,0.09,135,HR-IXPWINDi_r2_v1.2.,2013-01-19 21:22:00,
2013-01-19 16:27:00,53.1,19.1,29.93,SSW,196,11.0,26.0,26,0.00,,,0.09,120,HR-IXPWINDi_r2_v1.2.,2013-01-19 21:27:00,
2013-01-19 16:32:00,52.9,19.8,29.93,South,186,12.0,25.0,27,0.00,,,0.09,105,HR-IXPWINDi_r2_v1.2.,2013-01-19 21:32:00,
2013-01-19 16:38:00,52.9,19.8,29.92,South,191,10.0,18.0,27,0.00,,,0.09,91,HR-IXPWINDi_r2_v1.2.,2013-01-19 21:38:00,
2013-01-19 16:43:00,52.8,19.7,29.92,SSW,205,9.0,18.0,27,0.00,,,0.09,74,HR-IXPWINDi_r2_v1.2.,2013-01-19 21:43:00,
2013-01-19 16:48:00,52.8,19.7,29.92,SSW,194,14.0,19.0,27,0.00,,,0.09,62,HR-IXPWINDi_r2_v1.2.,2013-01-19 21:48:00,
2013-01-19 16:53:00,52.6,19.6,29.91,South,178,11.0,23.0,27,0.00,,,0.09,51,HR-IXPWINDi_r2_v1.2.,2013-01-19 21:53:00,
2013-01-19 16:58:00,52.5,19.5,29.91,South,178,5.0,23.0,27,0.00,,,0.09,30,HR-IXPWINDi_r2_v1.2.,2013-01-19 21:58:00,
2013-01-19 17:04:00,52.2,19.2,29.91,South,186,10.0,14.0,27,0.00,,,0.09,18,HR-IXPWINDi_r2_v1.2.,2013-01-19 22:04:00,
2013-01-19 17:10:00,52.0,19.9,29.91,SW,214,9.0,14.0,28,0.00,,,0.09,12,HR-IXPWINDi_r2_v1.2.,2013-01-19 22:10:00,
2013-01-19 17:15:00,51.7,19.6,29.91,South,189,11.0,16.0,28,0.00,,,0.09,7,HR-IXPWINDi_r2_v1.2.,2013-01-19 22:15:00,
2013-01-19 17:20:00,51.6,18.7,29.91,South,181,11.0,16.0,27,0.00,,,0.09,5,HR-IXPWINDi_r2_v1.2.,2013-01-19 22:20:00,
2013-01-19 17:25:00,51.3,18.5,29.91,South,188,5.0,13.0,27,0.00,,,0.09,0,HR-IXPWINDi_r2_v1.2.,2013-01-19 22:25:00,
2013-01-19 17:30:00,51.1,19.1,29.91,SSW,208,5.0,13.0,28,0.00,,,0.09,0,HR-IXPWINDi_r2_v1.2.,2013-01-19 22:30:00,
2013-01-19 17:36:00,51.0,19.0,29.90,SSW,193,5.0,11.0,28,0.00,,,0.09,0,HR-IXPWINDi_r2_v1.2.,2013-01-19 22:36:00,
2013-01-19 17:41:00,50.7,18.8,29.90,SW,219,6.0,11.0,28,0.00,,,0.09,0,HR-IXPWINDi_r2_v1.2.,2013-01-19 22:41:00,
2013-01-19 17:46:00,50.5,19.4,29.90,South,189,2.0,10.0,29,0.00,,,0.09,0,HR-IXPWINDi_r2_v1.2.,2013-01-19 22:46:00,
2013-01-19 17:51:00,50.4,19.3,29.90,SSE,156,3.0,10.0,29,0.00,,,0.09,0,HR-IXPWINDi_r2_v1.2.,2013-01-19 22:51:00,
2013-01-19 17:57:00,50.1,19.1,29.90,SSW,210,4.0,10.0,29,0.00,,,0.09,0,HR-IXPWINDi_r2_v1.2.,2013-01-19 22:57:00,
2013-01-19 18:02:00,49.9,18.9,29.90,SSW,204,5.0,7.0,29,0.00,,,0.09,0,HR-IXPWINDi_r2_v1.2.,2013-01-19 23:02:00,
2013-01-19 18:07:00,49.8,18.8,29.90,South,185,3.0,7.0,29,0.00,,,0.09,0,HR-IXPWINDi_r2_v1.2.,2013-01-19 23:07:00,
2013-01-19 18:13:00,49.5,19.4,29.90,South,173,4.0,11.0,30,0.00,,,0.09,0,HR-IXPWINDi_r2_v1.2.,2013-01-19 23:13:00,
2013-01-19 18:18:00,49.4,19.3,29.90,South,178,5.0,11.0,30,0.00,,,0.09,0,HR-IXPWINDi_r2_v1.2.,2013-01-19 23:18:00,
2013-01-19 18:23:00,49.2,19.1,29.90,South,178,1.0,8.0,30,0.00,,,0.09,0,HR-IXPWINDi_r2_v1.2.,2013-01-19 23:23:00,
2013-01-19 18:28:00,49.1,19.0,29.90,SSW,195,2.0,7.0,30,0.00,,,0.09,0,HR-IXPWINDi_r2_v1.2.,2013-01-19 23:28:00,
2013-01-19 18:33:00,48.9,19.6,29.90,South,185,4.0,7.0,31,0.00,,,0.09,0,HR-IXPWINDi_r2_v1.2.,2013-01-19 23:33:00,
2013-01-19 18:39:00,48.6,19.3,29.89,South,181,2.0,7.0,31,0.00,,,0.09,0,HR-IXPWINDi_r2_v1.2.,2013-01-19 23:39:00,
2013-01-19 18:44:00,48.5,19.2,29.89,South,178,3.0,7.0,31,0.00,,,0.09,0,HR-IXPWINDi_r2_v1.2.,2013-01-19 23:44:00,
2013-01-19 18:49:00,48.3,19.1,29.89,South,176,2.0,5.0,31,0.00,,,0.09,0,HR-IXPWINDi_r2_v1.2.,2013-01-19 23:49:00,
2013-01-19 18:54:00,48.2,19.0,29.88,South,177,4.0,12.0,31,0.00,,,0.09,0,HR-IXPWINDi_r2_v1.2.,2013-01-19 23:54:00,
2013-01-19 19:00:00,48.2,19.7,29.88,SSW,203,2.0,12.0,32,0.00,,,0.09,0,HR-IXPWINDi_r2_v1.2.,2013-01-20 00:00:00,
2013-01-19 19:05:00,48.2,19.0,29.88,SSW,202,3.0,11.0,31,0.00,,,0.09,0,HR-IXPWINDi_r2_v1.2.,2013-01-20 00:05:00,
2013-01-19 19:10:00,48.3,19.1,29.88,South,186,6.0,14.0,31,0.00,,,0.09,0,HR-IXPWINDi_r2_v1.2.,2013-01-20 00:10:00,
2013-01-19 19:15:00,48.3,19.1,29.88,SSW,204,7.0,14.0,31,0.00,,,0.09,0,HR-IXPWINDi_r2_v1.2.,2013-01-20 00:15:00,
2013-01-19 19:20:00,48.3,19.1,29.88,SSW,203,5.0,13.0,31,0.00,,,0.09,0,HR-IXPWINDi_r2_v1.2.,2013-01-20 00:20:00,
2013-01-19 19:25:00,48.3,19.1,29.88,SSW,195,6.0,13.0,31,0.00,,,0.09,0,HR-IXPWINDi_r2_v1.2.,2013-01-20 00:25:00,
2013-01-19 19:31:00,48.3,19.1,29.88,SSW,197,4.0,12.0,31,0.00,,,0.09,0,HR-IXPWINDi_r2_v1.2.,2013-01-20 00:31:00,
2013-01-19 19:36:00,48.2,19.0,29.87,SSE,166,5.0,9.0,31,0.00,,,0.09,0,HR-IXPWINDi_r2_v1.2.,2013-01-20 00:36:00,
2013-01-19 19:41:00,48.0,18.8,29.87,SSE,163,4.0,9.0,31,0.00,,,0.09,0,HR-IXPWINDi_r2_v1.2.,2013-01-20 00:41:00,
2013-01-19 19:47:00,47.9,19.5,29.87,South,181,4.0,10.0,32,0.00,,,0.09,0,HR-IXPWINDi_r2_v1.2.,2013-01-20 00:47:00,
2013-01-19 19:52:00,47.9,19.5,29.87,South,178,3.0,17.0,32,0.00,,,0.09,0,HR-IXPWINDi_r2_v1.2.,2013-01-20 00:52:00,
2013-01-19 19:57:00,47.9,19.5,29.87,South,189,6.0,17.0,32,0.00,,,0.09,0,HR-IXPWINDi_r2_v1.2.,2013-01-20 00:57:00,
2013-01-19 20:02:00,47.9,19.5,29.87,SSW,193,5.0,15.0,32,0.00,,,0.09,0,HR-IXPWINDi_r2_v1.2.,2013-01-20 01:02:00,
2013-01-19 20:07:00,47.9,19.5,29.86,South,176,7.0,15.0,32,0.00,,,0.09,0,HR-IXPWINDi_r2_v1.2.,2013-01-20 01:07:00,
2013-01-19 20:13:00,47.9,19.5,29.86,SE,141,8.0,15.0,32,0.00,,,0.09,0,HR-IXPWINDi_r2_v1.2.,2013-01-20 01:13:00,
2013-01-19 20:18:00,47.9,19.5,29.86,South,185,5.0,15.0,32,0.00,,,0.09,0,HR-IXPWINDi_r2_v1.2.,2013-01-20 01:18:00,
2013-01-19 20:23:00,47.9,20.2,29.85,South,191,7.0,12.0,33,0.00,,,0.09,0,HR-IXPWINDi_r2_v1.2.,2013-01-20 01:23:00,
2013-01-19 20:28:00,47.7,20.0,29.85,SSW,196,6.0,13.0,33,0.00,,,0.09,0,HR-IXPWINDi_r2_v1.2.,2013-01-20 01:28:00,
2013-01-19 20:34:00,47.7,19.3,29.85,South,179,7.0,13.0,32,0.00,,,0.09,0,HR-IXPWINDi_r2_v1.2.,2013-01-20 01:34:00,
2013-01-19 20:39:00,47.7,19.3,29.83,SSW,196,9.0,13.0,32,0.00,,,0.09,0,HR-IXPWINDi_r2_v1.2.,2013-01-20 01:39:00,
2013-01-19 20:44:00,47.7,19.3,29.83,South,190,4.0,13.0,32,0.00,,,0.09,0,HR-IXPWINDi_r2_v1.2.,2013-01-20 01:44:00,
2013-01-19 20:49:00,47.7,19.3,29.83,SW,229,7.0,15.0,32,0.00,,,0.09,0,HR-IXPWINDi_r2_v1.2.,2013-01-20 01:49:00,
2013-01-19 20:54:00,47.9,19.5,29.83,SSW,212,3.0,19.0,32,0.00,,,0.09,0,HR-IXPWINDi_r2_v1.2.,2013-01-20 01:54:00,
2013-01-19 21:00:00,48.0,19.5,29.83,South,188,11.0,19.0,32,0.00,,,0.09,0,HR-IXPWINDi_r2_v1.2.,2013-01-20 02:00:00,
2013-01-19 21:05:00,48.0,19.5,29.83,SSE,165,6.0,18.0,32,0.00,,,0.09,0,HR-IXPWINDi_r2_v1.2.,2013-01-20 02:05:00,
2013-01-19 21:10:00,48.0,19.5,29.83,SSW,201,11.0,19.0,32,0.00,,,0.09,0,HR-IXPWINDi_r2_v1.2.,2013-01-20 02:10:00,
2013-01-19 21:16:00,48.0,20.3,29.83,SSW,194,10.0,19.0,33,0.00,,,0.09,0,HR-IXPWINDi_r2_v1.2.,2013-01-20 02:16:00,
2013-01-19 21:21:00,48.2,19.7,29.83,SSE,148,5.0,23.0,32,0.00,,,0.09,0,HR-IXPWINDi_r2_v1.2.,2013-01-20 02:21:00,
2013-01-19 21:27:00,48.3,20.5,29.83,SW,223,11.0,23.0,33,0.00,,,0.09,0,HR-IXPWINDi_r2_v1.2.,2013-01-20 02:27:00,
2013-01-19 21:32:00,48.3,20.5,29.83,South,186,12.0,20.0,33,0.00,,,0.09,0,HR-IXPWINDi_r2_v1.2.,2013-01-20 02:32:00,
2013-01-19 21:37:00,48.5,20.7,29.83,South,186,7.0,26.0,33,0.00,,,0.09,0,HR-IXPWINDi_r2_v1.2.,2013-01-20 02:37:00,
2013-01-19 21:42:00,48.5,21.4,29.83,SSW,193,13.0,26.0,34,0.00,,,0.09,0,HR-IXPWINDi_r2_v1.2.,2013-01-20 02:42:00,
2013-01-19 21:47:00,48.6,21.5,29.83,SSW,208,16.0,21.0,34,0.00,,,0.09,0,HR-IXPWINDi_r2_v1.2.,2013-01-20 02:47:00,
2013-01-19 21:53:00,48.8,21.0,29.82,South,184,15.0,24.0,33,0.00,,,0.09,0,HR-IXPWINDi_r2_v1.2.,2013-01-20 02:53:00,
2013-01-19 21:58:00,48.9,21.1,29.82,SSW,193,7.0,24.0,33,0.00,,,0.09,0,HR-IXPWINDi_r2_v1.2.,2013-01-20 02:58:00,
2013-01-19 22:03:00,48.8,21.0,29.82,South,184,14.0,23.0,33,0.00,,,0.09,0,HR-IXPWINDi_r2_v1.2.,2013-01-20 03:03:00,
2013-01-19 22:08:00,48.8,21.7,29.81,SSW,197,13.0,25.0,34,0.00,,,0.09,0,HR-IXPWINDi_r2_v1.2.,2013-01-20 03:08:00,
2013-01-19 22:14:00,48.8,21.7,29.81,SSW,208,17.0,25.0,34,0.00,,,0.09,0,HR-IXPWINDi_r2_v1.2.,2013-01-20 03:14:00,
2013-01-19 22:19:00,48.8,21.7,29.81,SW,219,9.0,27.0,34,0.00,,,0.09,0,HR-IXPWINDi_r2_v1.2.,2013-01-20 03:19:00,
2013-01-19 22:24:00,48.8,21.7,29.81,SSW,204,11.0,27.0,34,0.00,,,0.09,0,HR-IXPWINDi_r2_v1.2.,2013-01-20 03:24:00,
2013-01-19 22:29:00,48.6,22.2,29.81,SSW,193,11.0,22.0,35,0.00,,,0.09,0,HR-IXPWINDi_r2_v1.2.,2013-01-20 03:29:00,
2013-01-19 22:34:00,48.5,22.1,29.81,SW,228,10.0,20.0,35,0.00,,,0.09,0,HR-IXPWINDi_r2_v1.2.,2013-01-20 03:34:00,
2013-01-19 22:39:00,48.3,22.6,29.81,South,191,16.0,25.0,36,0.00,,,0.09,0,HR-IXPWINDi_r2_v1.2.,2013-01-20 03:39:00,
2013-01-19 22:44:00,48.3,22.6,29.81,SSW,198,13.0,25.0,36,0.00,,,0.09,0,HR-IXPWINDi_r2_v1.2.,2013-01-20 03:44:00,
2013-01-19 22:49:00,48.2,22.5,29.81,SSW,210,10.0,24.0,36,0.00,,,0.09,0,HR-IXPWINDi_r2_v1.2.,2013-01-20 03:49:00,
2013-01-19 22:55:00,48.0,23.0,29.81,South,190,15.0,26.0,37,0.00,,,0.09,0,HR-IXPWINDi_r2_v1.2.,2013-01-20 03:55:00,
2013-01-19 23:00:00,47.9,22.9,29.81,SSW,213,18.0,26.0,37,0.00,,,0.09,0,HR-IXPWINDi_r2_v1.2.,2013-01-20 04:00:00,
2013-01-19 23:05:00,47.7,22.7,29.80,South,190,15.0,25.0,37,0.00,,,0.09,0,HR-IXPWINDi_r2_v1.2.,2013-01-20 04:05:00,
2013-01-19 23:10:00,47.7,23.3,29.80,SSW,201,12.0,23.0,38,0.00,,,0.09,0,HR-IXPWINDi_r2_v1.2.,2013-01-20 04:10:00,
2013-01-19 23:15:00,47.6,23.2,29.80,SW,226,15.0,27.0,38,0.00,,,0.09,0,HR-IXPWINDi_r2_v1.2.,2013-01-20 04:15:00,
2013-01-19 23:20:00,47.6,23.2,29.79,SSW,204,24.0,29.0,38,0.00,,,0.09,0,HR-IXPWINDi_r2_v1.2.,2013-01-20 04:20:00,
2013-01-19 23:26:00,47.6,23.2,29.79,SW,221,13.0,29.0,38,0.00,,,0.09,0,HR-IXPWINDi_r2_v1.2.,2013-01-20 04:26:00,
2013-01-19 23:31:00,47.4,23.7,29.79,SSW,202,13.0,26.0,39,0.00,,,0.09,0,HR-IXPWINDi_r2_v1.2.,2013-01-20 04:31:00,
2013-01-19 23:36:00,47.3,23.6,29.79,SSW,205,14.0,21.0,39,0.00,,,0.09,0,HR-IXPWINDi_r2_v1.2.,2013-01-20 04:36:00,
2013-01-19 23:41:00,47.3,24.2,29.79,South,182,13.0,23.0,40,0.00,,,0.09,0,HR-IXPWINDi_r2_v1.2.,2013-01-20 04:41:00,
2013-01-19 23:46:00,47.1,24.0,29.79,SW,234,5.0,24.0,40,0.00,,,0.09,0,HR-IXPWINDi_r2_v1.2.,2013-01-20 04:46:00,
2013-01-19 23:51:00,47.0,23.9,29.79,SSW,212,13.0,25.0,40,0.00,,,0.09,0,HR-IXPWINDi_r2_v1.2.,2013-01-20 04:51:00,
2013-01-19 23:57:00,47.0,23.9,29.79,SW,222,9.0,25.0,40,0.00,,,0.09,0,HR-IXPWINDi_r2_v1.2.,2013-01-20 04:57:00,